TimeEDT,TemperatureF,Dew PointF,Humidity,Sea Level PressureIn,VisibilityMPH,Wind Direction,Wind SpeedMPH,Gust SpeedMPH,PrecipitationIn,Events,Conditions,WindDirDegrees,DateUTC
12:51 AM,66.9,61.0,81,30.18,10.0,WNW,3.5,-,N/A,,Overcast,290,2013-08-19 04:51:00
1:51 AM,66.9,61.0,81,30.17,10.0,West,3.5,-,N/A,,Overcast,270,2013-08-19 05:51:00
2:51 AM,66.0,60.1,81,30.16,10.0,NW,3.5,-,N/A,,Overcast,310,2013-08-19 06:51:00
3:51 AM,64.9,59.0,81,30.15,10.0,West,3.5,-,N/A,,Partly Cloudy,270,2013-08-19 07:51:00
4:51 AM,63.0,59.0,87,30.15,10.0,WNW,3.5,-,N/A,,Clear,290,2013-08-19 08:51:00
5:51 AM,63.0,59.0,87,30.15,10.0,Calm,Calm,-,N/A,,Clear,0,2013-08-19 09:51:00
6:51 AM,63.0,59.0,87,30.17,10.0,WNW,3.5,-,N/A,,Clear,300,2013-08-19 10:51:00
7:51 AM,66.0,59.0,78,30.16,8.0,Calm,Calm,-,N/A,,Clear,0,2013-08-19 11:51:00
8:51 AM,69.1,59.0,70,30.16,10.0,Calm,Calm,-,N/A,,Clear,0,2013-08-19 12:51:00
9:51 AM,71.1,57.9,63,30.17,10.0,WSW,4.6,-,N/A,,Clear,250,2013-08-19 13:51:00
10:51 AM,73.0,59.0,61,30.15,10.0,Variable,3.5,-,N/A,,Clear,0,2013-08-19 14:51:00
11:51 AM,73.0,60.1,64,30.13,10.0,West,8.1,-,N/A,,Clear,260,2013-08-19 15:51:00
12:51 PM,73.0,60.1,64,30.12,10.0,SW,8.1,-,N/A,,Clear,230,2013-08-19 16:51:00
1:51 PM,73.0,60.1,64,30.12,10.0,West,9.2,-,N/A,,Clear,260,2013-08-19 17:51:00
2:51 PM,73.9,63.0,68,30.11,10.0,SSW,8.1,-,N/A,,Partly Cloudy,200,2013-08-19 18:51:00
3:51 PM,75.9,64.0,67,30.10,10.0,WSW,6.9,-,N/A,,Clear,250,2013-08-19 19:51:00
4:51 PM,75.0,64.0,69,30.10,10.0,WSW,6.9,-,0.00,,Mostly Cloudy,240,2013-08-19 20:51:00
5:51 PM,75.0,64.0,69,30.09,10.0,WSW,3.5,-,N/A,,Clear,250,2013-08-19 21:51:00
6:51 PM,73.9,64.0,71,30.09,10.0,SW,4.6,-,N/A,,Mostly Cloudy,230,2013-08-19 22:51:00
7:51 PM,73.0,64.0,73,30.09,10.0,WSW,3.5,-,N/A,,Scattered Clouds,250,2013-08-19 23:51:00
8:51 PM,72.0,64.0,76,30.09,10.0,SW,3.5,-,N/A,,Clear,220,2013-08-20 00:51:00
9:51 PM,71.1,64.0,78,30.10,10.0,Calm,Calm,-,N/A,,Clear,0,2013-08-20 01:51:00
10:51 PM,70.0,64.9,84,30.11,10.0,SW,3.5,-,N/A,,Clear,230,2013-08-20 02:51:00
11:51 PM,69.1,64.9,87,30.11,10.0,SW,4.6,-,N/A,,Clear,220,2013-08-20 03:51:00